Location: Keewatin
(47.4004°N, 93.0827°W)
Time: 06:13:09
(UTC+00:00)

KKS-1 - Pass Details

Date: 21 February 2020
Orbit: 637 x 650 km, 98.3° (Epoch: 07 April)

Event Time Altitude Azimuth Distance (km) Brightness Sun altitude
Rises 11:30:06 0° 112° (ESE) 2,954 ? -17.3°
Reaches altitude 10° 11:33:20 10° 87° (E) 2,046 ? -16.7°
Maximum altitude 11:35:30 14° 58° (ENE) 1,819 ? -16.3°
Drops below altitude 10° 11:37:40 10° 28° (NNE) 2,049 ? -16.0°
Sets 11:40:54 0° 3° (N) 2,962 ? -15.4°
